Air Resources Laboratory banner image
Air Resources Laboratory web site National Oceanic and Atmospheric Administration (NOAA)

az roundup


Office: PSR

ASUS45 KPSR 232110
RWRAZ

ARIZONA HOURLY REGIONAL WEATHER ROUNDUP
NATIONAL WEATHER SERVICE PHOENIX AZ
200 PM MST SAT JUN 23 2018

NOTE: FAIR INDICATES FEW OR NO CLOUDS BELOW 12,000 FEET WITH NO
SIGNIFICANT WEATHER AND/OR OBSTRUCTIONS TO VISIBILITY.

AZZ001>003-036-232200-
NORTHWEST ARIZONA

CITY           SKY/WX    TMP DP  RH WIND       PRES   REMARKS
BULLHEAD CITY  SUNNY    106  39  10 S16       29.65F HX 100
KINGMAN        SUNNY    100  27   7 S24G35    29.88S
$$

AZZ004>008-015-016-018-232200-
NORTH CENTRAL ARIZONA

CITY           SKY/WX    TMP DP  RH WIND       PRES   REMARKS
GRAND CANYON   SUNNY     92  15   6 SW18G31   30.07F
WILLIAMS       SUNNY     88  18   7 SW18G25   30.11S
PRESCOTT       SUNNY     91  26   9 SW18G28   30.02F
FLAGSTAFF      SUNNY     82  30  15 SW12G31   30.13F
PAYSON         SUNNY     90  28  11 W16G25    30.05S
PAGE           SUNNY    100  12   4 NE6       29.81F
$$

AZZ009>014-017-232200-
NORTHEAST ARIZONA

CITY           SKY/WX    TMP DP  RH WIND       PRES   REMARKS
WINSLOW        SUNNY    100  23   6 SW18G33   29.93F
SAINT JOHNS    SUNNY     97  17   5 SW21G28   29.98F
WINDOW ROCK    SUNNY     92   6   4 SW17G26   30.06F
SHOW LOW       SUNNY     90  27  10 S14G24    30.09F
$$

AZZ540-542>544-546-548-232200-
GREATER PHOENIX AREA

CITY           SKY/WX    TMP DP  RH WIND       PRES   REMARKS
PHOENIX        SUNNY    105  39  10 W9        29.73F
BUCKEYE        SUNNY    104  46  14 S7        29.74F HX 100
GLENDALE       SUNNY    106  45  12 SW12      29.75F HX 101
LUKE AFB       SUNNY    103  45  13 S10G18    29.73F
DEER VALLEY    SUNNY    102  40  12 SW15G21   29.77F
SCOTTSDALE       N/A    102  42  13 MISG      29.79F
MESA-FALCON    SUNNY    104  45  13 SW10G16   29.77F HX 100
MESA-GATEWAY   SUNNY    102  37  10 SW9G17    29.78F
CHANDLER       SUNNY    104  37  10 SW3G14    29.76F
$$

AZZ539-553-232200-
SOUTHWEST MARICOPA COUNTY AND PINAL COUNTY

CITY           SKY/WX    TMP DP  RH WIND       PRES   REMARKS
CASA GRANDE    SUNNY    104  45  13 SW9G18    29.78F HX 100
GILA BEND      FAIR     106  40  10 SW13G21   29.71S HX 100
$$

AZZ503-504-507>509-232200-
SOUTHEAST ARIZONA

CITY           SKY/WX    TMP DP  RH WIND       PRES   REMARKS
TUCSON         SUNNY    100  47  16 VRB7G17   29.89F
DAVIS-MONTHAN  SUNNY    102  47  15 NW8       29.87F
RYAN FIELD     SUNNY    100  46  16 W13G23    29.88F
NOGALES        SUNNY     95  49  20 W10       30.00F
SIERRA VISTA   SUNNY     93  46  19 SW12G25   30.05F
DOUGLAS        SUNNY     94  41  16 VRB7G18   29.97F
SAFFORD        SUNNY    103  27   7 NW17G28   29.82F
$$

AZZ532-232200-
SOUTHWEST ARIZONA

CITY           SKY/WX    TMP DP  RH WIND       PRES   REMARKS
YUMA           SUNNY    100  64  30 S24       29.71F HX 102
$$

CAZ041-043-047-048-061-525>527-560>570-232200-
SOUTHERN CALIFORNIA

CITY           SKY/WX    TMP DP  RH WIND       PRES   REMARKS
DOWNTOWN L.A.  CLOUDY    71  59  65 VRB3      29.87S
L.A. AIRPORT   CLOUDY    70  58  65 SE12      29.88S
SAN DIEGO      CLOUDY    65  57  75 S14       29.92
BURBANK        MOSUNNY   73  61  65 S12G18    29.86F
ONTARIO        SUNNY     81  59  47 W13G22    29.85S
RIVERSIDE      SUNNY     82  59  45 W10G23    29.84S
PALM SPRINGS   SUNNY    100  56  23 S7        29.72F
EL CENTRO NAS  SUNNY    102  58  23 SE14      29.68F HX 102
IMPERIAL       CLOUDY   101  67  32 SE18G24   29.66F HX 106
BLYTHE         MOSUNNY  102  61  25 S22G31    29.69F HX 103
NEEDLES        SUNNY    110  39   9 S20G28    29.68F HX 104
$$

NVZ020-UTZ003-232200-
SOUTHERN NEVADA-UTAH

CITY           SKY/WX    TMP DP  RH WIND       PRES   REMARKS
LAS VEGAS      SUNNY    108  31   7 VRB3      29.68F HX 100
SALT LAKE CITY MOSUNNY   85  38  18 N16G23    29.87F
$$

NMZ009-TXZ055-232200-
NEW MEXICO-WEST TEXAS

CITY           SKY/WX    TMP DP  RH WIND       PRES   REMARKS
ALBUQUERQUE    MOSUNNY   94  21   7 SW12G18   29.92F
EL PASO        MOSUNNY  106  11   3 W15       29.84F
$$


........................KEY........................
SKY/WX - SKY CONDITION/WEATHER
TMP    - TEMPERATURE IN FAHRENHEIT
DP     - DEW POINT IN FAHRENHEIT
RH     - RELATIVE HUMIDITY IN PERCENT
WIND   - DIRECTION AND SPEED IN MILES PER HOUR (MPH)
VRB    - VARIABLE WIND DIRECTION
PRES   - MEAN SEA LEVEL PRESSURE IN INCHES OF MERCURY
         F - FALLING PRESSURE   R - RISING PRESSURE
         S - STEADY PRESSURE
VSB    - VISIBILITY IN MILES
HX     - HEAT INDEX IN FAHRENHEIT
WCI    - WIND CHILL INDEX IN FAHRENHEIT
TC     - TEMPERATURE IN CELSIUS WHICH IS ALSO KNOWN AS
         TEMPERATURE IN CENTIGRADE
AFB    - AIR FORCE BASE
         LUKE AFB IS LUKE AIR FORCE BASE
         DAVIS-MONTHAN IS DAVIS-MONTHAN AIR FORCE BASE
NAS    - NAVAL AIR STATION
         EL CENTRO NAS IS EL CENTRO NAVAL AIR STATION
N/A    - NOT AVAILABLE